ARG1694 SAZS-SAWC

Flight info

Callsign ARG1694
Flight time 1h 34m
Altitude 37000
Route TORES2C TORES UW44 ESQ UT658 DAKAX UZ116 MOTNO MOTNO1Q
Aircraft B738/M-SDE2E3FGHIRWXY/LB1

Departure

Time 2026-04-20 14:18
Airport Teniente Luis Candelaria International Airport (SAZS)

Arrival

Time 2026-04-20 15:52
Airport El Calafate - Commander Armando Tola International Airport (SAWC)
Time Latitude Longitude Altitude Speed Heading
2026-04-20 13:48 -41.14645 -71.16190 2757 ft 0 kts 25°
2026-04-20 14:08 -41.14655 -71.16196 2760 ft 2 kts 25°
2026-04-20 14:09 -41.14669 -71.16205 2760 ft 2 kts 25°
2026-04-20 14:09 -41.14683 -71.16213 2760 ft 2 kts 25°
2026-04-20 14:09 -41.14696 -71.16222 2760 ft 2 kts 25°
2026-04-20 14:09 -41.14710 -71.16230 2760 ft 2 kts 25°
2026-04-20 14:10 -41.14724 -71.16238 2760 ft 2 kts 25°
2026-04-20 14:10 -41.14736 -71.16249 2760 ft 2 kts 45°
2026-04-20 14:10 -41.14746 -71.16264 2760 ft 2 kts 61°
2026-04-20 14:10 -41.14750 -71.16279 2760 ft 2 kts 75°
2026-04-20 14:11 -41.14753 -71.16299 2760 ft 2 kts 91°
2026-04-20 14:11 -41.14750 -71.16318 2760 ft 2 kts 108°
2026-04-20 14:11 -41.14748 -71.16328 2760 ft 1 kts 117°
2026-04-20 14:11 -41.14746 -71.16331 2760 ft 0 kts 115°
2026-04-20 14:13 -41.14747 -71.16329 2760 ft 1 kts 115°
2026-04-20 14:13 -41.14764 -71.16280 2760 ft 7 kts 115°
2026-04-20 14:13 -41.14795 -71.16224 2760 ft 8 kts 123°
2026-04-20 14:14 -41.14827 -71.16136 2760 ft 12 kts 114°
2026-04-20 14:14 -41.14862 -71.16034 2760 ft 12 kts 114°
2026-04-20 14:14 -41.14903 -71.15916 2760 ft 16 kts 114°
2026-04-20 14:14 -41.14954 -71.15767 2760 ft 21 kts 114°
2026-04-20 14:15 -41.15029 -71.15548 2760 ft 29 kts 115°
2026-04-20 14:15 -41.15114 -71.15305 2760 ft 29 kts 114°
2026-04-20 14:15 -41.15199 -71.15060 2760 ft 28 kts 114°
2026-04-20 14:15 -41.15281 -71.14822 2760 ft 28 kts 115°
2026-04-20 14:16 -41.15364 -71.14580 2760 ft 27 kts 115°
2026-04-20 14:16 -41.15429 -71.14464 2760 ft 12 kts 175°
2026-04-20 14:16 -41.15509 -71.14503 2760 ft 12 kts 204°
2026-04-20 14:16 -41.15530 -71.14568 2760 ft 9 kts 294°
2026-04-20 14:17 -41.15467 -71.14748 2760 ft 47 kts 294°
2026-04-20 14:17 -41.15239 -71.15406 2760 ft 109 kts 295°
2026-04-20 14:17 -41.14845 -71.16548 2762 ft 159 kts 295°
2026-04-20 14:17 -41.14361 -71.17921 3233 ft 165 kts 296°
2026-04-20 14:18 -41.13875 -71.19318 3762 ft 173 kts 294°
2026-04-20 14:18 -41.13389 -71.20845 4180 ft 186 kts 293°
2026-04-20 14:18 -41.12866 -71.22445 4646 ft 196 kts 294°
2026-04-20 14:18 -41.12296 -71.24132 5046 ft 210 kts 295°
2026-04-20 14:19 -41.12056 -71.24840 5226 ft 215 kts 294°
2026-04-20 14:19 -41.11412 -71.26749 5641 ft 233 kts 295°
2026-04-20 14:20 -41.10744 -71.28732 6284 ft 240 kts 294°
2026-04-20 14:20 -41.10058 -71.30765 7023 ft 243 kts 294°
2026-04-20 14:20 -41.09371 -71.32801 7691 ft 248 kts 294°
2026-04-20 14:20 -41.08654 -71.34923 8123 ft 254 kts 294°
2026-04-20 14:21 -41.08056 -71.37123 8720 ft 260 kts 279°
2026-04-20 14:21 -41.08172 -71.39487 9563 ft 258 kts 253°
2026-04-20 14:21 -41.08979 -71.41589 10219 ft 263 kts 234°
2026-04-20 14:21 -41.10229 -71.43342 10859 ft 268 kts 220°
2026-04-20 14:22 -41.11883 -71.44537 11474 ft 276 kts 195°
2026-04-20 14:22 -41.13808 -71.44685 12156 ft 279 kts 170°
2026-04-20 14:22 -41.15644 -71.43934 12865 ft 281 kts 153°
2026-04-20 14:22 -41.17270 -71.42467 13548 ft 283 kts 136°
2026-04-20 14:23 -41.18636 -71.40655 14271 ft 284 kts 137°
2026-04-20 14:23 -41.20279 -71.39184 14976 ft 286 kts 154°
2026-04-20 14:23 -41.22108 -71.38267 15737 ft 285 kts 161°
2026-04-20 14:23 -41.24029 -71.37501 16357 ft 289 kts 162°
2026-04-20 14:24 -41.25957 -71.36742 17067 ft 289 kts 162°
2026-04-20 14:24 -41.27882 -71.35944 17521 ft 298 kts 161°
2026-04-20 14:24 -41.29905 -71.35068 17879 ft 311 kts 160°
2026-04-20 14:24 -41.32011 -71.34135 18205 ft 325 kts 160°
2026-04-20 14:25 -41.34164 -71.33177 18575 ft 337 kts 160°
2026-04-20 14:25 -41.36447 -71.32159 18842 ft 352 kts 160°
2026-04-20 14:25 -41.38812 -71.31106 19181 ft 364 kts 160°
2026-04-20 14:25 -41.41227 -71.30032 19796 ft 367 kts 160°
2026-04-20 14:26 -41.43664 -71.28949 20397 ft 371 kts 160°
2026-04-20 14:26 -41.46089 -71.27870 21040 ft 373 kts 160°
2026-04-20 14:26 -41.48555 -71.26773 21670 ft 375 kts 160°
2026-04-20 14:26 -41.51031 -71.25669 22193 ft 379 kts 160°
2026-04-20 14:27 -41.53543 -71.24548 22794 ft 381 kts 160°
2026-04-20 14:27 -41.56066 -71.23419 23350 ft 384 kts 160°
2026-04-20 14:27 -41.58593 -71.22289 23864 ft 387 kts 160°
2026-04-20 14:27 -41.61171 -71.21135 24370 ft 391 kts 160°
2026-04-20 14:28 -41.63745 -71.19982 24901 ft 393 kts 160°
2026-04-20 14:28 -41.66338 -71.18819 25432 ft 395 kts 160°
2026-04-20 14:28 -41.68948 -71.17690 25910 ft 398 kts 161°
2026-04-20 14:28 -41.71616 -71.16712 26351 ft 402 kts 166°
2026-04-20 14:29 -41.74376 -71.16081 26840 ft 405 kts 171°
2026-04-20 14:29 -41.77182 -71.15733 27270 ft 408 kts 174°
2026-04-20 14:29 -41.80022 -71.15535 27721 ft 411 kts 175°
2026-04-20 14:29 -41.82881 -71.15401 28094 ft 415 kts 176°
2026-04-20 14:30 -41.85769 -71.15287 28529 ft 417 kts 176°
2026-04-20 14:30 -41.88674 -71.15175 28989 ft 418 kts 176°
2026-04-20 14:30 -41.91591 -71.15055 29366 ft 421 kts 175°
2026-04-20 14:30 -41.94536 -71.14926 29721 ft 425 kts 175°
2026-04-20 14:31 -41.97497 -71.14789 30138 ft 427 kts 175°
2026-04-20 14:31 -42.00431 -71.14648 30577 ft 428 kts 175°
2026-04-20 14:31 -42.03404 -71.14500 30995 ft 429 kts 176°
2026-04-20 14:31 -42.06399 -71.14349 31438 ft 429 kts 175°
2026-04-20 14:32 -42.09350 -71.14200 32082 ft 424 kts 175°
2026-04-20 14:32 -42.12299 -71.14051 32783 ft 418 kts 175°
2026-04-20 14:32 -42.15189 -71.13904 33379 ft 415 kts 175°
2026-04-20 14:32 -42.18058 -71.13757 33907 ft 412 kts 175°
2026-04-20 14:33 -42.20916 -71.13608 34324 ft 412 kts 175°
2026-04-20 14:33 -42.23800 -71.13458 34736 ft 412 kts 175°
2026-04-20 14:33 -42.26655 -71.13309 35122 ft 412 kts 175°
2026-04-20 14:33 -42.29532 -71.13158 35502 ft 412 kts 176°
2026-04-20 14:34 -42.32366 -71.13009 35861 ft 412 kts 176°
2026-04-20 14:34 -42.35227 -71.12859 36133 ft 413 kts 176°
2026-04-20 14:34 -42.40986 -71.12555 36121 ft 411 kts 176°
2026-04-20 14:35 -42.46765 -71.12250 36119 ft 411 kts 176°
2026-04-20 14:35 -42.52532 -71.11947 36114 ft 411 kts 176°
2026-04-20 14:36 -42.58266 -71.11645 36112 ft 411 kts 176°
2026-04-20 14:36 -42.63998 -71.11343 36125 ft 411 kts 176°
2026-04-20 14:37 -42.69759 -71.11037 36129 ft 412 kts 176°
2026-04-20 14:37 -42.75463 -71.10735 36125 ft 412 kts 176°
2026-04-20 14:38 -42.81230 -71.10429 36130 ft 413 kts 176°
2026-04-20 14:38 -42.86946 -71.10125 36121 ft 412 kts 176°
2026-04-20 14:39 -42.92707 -71.09530 36135 ft 413 kts 172°
2026-04-20 14:39 -42.98397 -71.08534 36135 ft 413 kts 171°
2026-04-20 14:40 -43.04111 -71.07421 36134 ft 413 kts 171°
2026-04-20 14:40 -43.09818 -71.06332 36131 ft 413 kts 172°
2026-04-20 14:41 -43.15543 -71.05362 36127 ft 413 kts 172°
2026-04-20 14:41 -43.21224 -71.04437 36113 ft 413 kts 173°
2026-04-20 14:42 -43.26953 -71.03488 36109 ft 414 kts 172°
2026-04-20 14:42 -43.32625 -71.02377 36128 ft 413 kts 172°
2026-04-20 14:43 -43.38328 -71.01362 36120 ft 413 kts 172°
2026-04-20 14:43 -43.44008 -71.00353 36126 ft 413 kts 173°
2026-04-20 14:44 -43.49755 -70.99372 36129 ft 414 kts 172°
2026-04-20 14:44 -43.55458 -70.98349 36117 ft 415 kts 173°
2026-04-20 14:45 -43.61168 -70.97282 36114 ft 416 kts 173°
2026-04-20 14:45 -43.66871 -70.96239 36104 ft 414 kts 173°
2026-04-20 14:46 -43.72584 -70.95220 36095 ft 416 kts 173°
2026-04-20 14:46 -43.78313 -70.94199 36093 ft 416 kts 173°
2026-04-20 14:47 -43.84038 -70.93173 36088 ft 416 kts 173°
2026-04-20 14:48 -43.92653 -70.91625 36085 ft 416 kts 173°
2026-04-20 14:48 -43.98406 -70.90588 36095 ft 416 kts 173°
2026-04-20 14:49 -44.04140 -70.89552 36097 ft 416 kts 174°
2026-04-20 14:49 -44.09847 -70.88519 36091 ft 417 kts 174°
2026-04-20 14:50 -44.15644 -70.87467 36081 ft 417 kts 174°
2026-04-20 14:50 -44.21379 -70.86424 36080 ft 419 kts 174°
2026-04-20 14:51 -44.27178 -70.85369 36076 ft 418 kts 174°
2026-04-20 14:51 -44.32905 -70.84322 36071 ft 418 kts 174°
2026-04-20 14:52 -44.38663 -70.83269 36062 ft 419 kts 174°
2026-04-20 14:52 -44.44470 -70.82203 36055 ft 420 kts 174°
2026-04-20 14:53 -44.50241 -70.81144 36054 ft 419 kts 174°
2026-04-20 14:53 -44.55983 -70.80087 36059 ft 418 kts 174°
2026-04-20 14:54 -44.61778 -70.79018 36058 ft 419 kts 174°
2026-04-20 14:54 -44.67556 -70.77953 36040 ft 421 kts 175°
2026-04-20 14:55 -44.73368 -70.76876 36043 ft 420 kts 175°
2026-04-20 14:55 -44.79172 -70.75980 36055 ft 419 kts 179°
2026-04-20 14:56 -44.85029 -70.76090 36039 ft 420 kts 185°
2026-04-20 14:56 -44.90828 -70.76678 36032 ft 420 kts 187°
2026-04-20 14:57 -44.96702 -70.77348 36042 ft 420 kts 187°
2026-04-20 14:57 -45.02522 -70.77988 36029 ft 421 kts 186°
2026-04-20 14:58 -45.08329 -70.78606 36030 ft 419 kts 186°
2026-04-20 14:58 -45.14190 -70.79216 36028 ft 419 kts 186°
2026-04-20 14:59 -45.19990 -70.79816 36022 ft 420 kts 186°
2026-04-20 14:59 -45.25809 -70.80419 36017 ft 420 kts 186°
2026-04-20 15:00 -45.31678 -70.81027 36017 ft 421 kts 186°
2026-04-20 15:00 -45.37526 -70.81636 36022 ft 422 kts 186°
2026-04-20 15:01 -45.43374 -70.82241 36017 ft 422 kts 186°
2026-04-20 15:01 -45.49201 -70.82846 36011 ft 422 kts 187°
2026-04-20 15:02 -45.55066 -70.83457 36014 ft 423 kts 187°
2026-04-20 15:02 -45.60960 -70.84073 36022 ft 423 kts 187°
2026-04-20 15:03 -45.66779 -70.84679 36030 ft 421 kts 187°
2026-04-20 15:03 -45.72646 -70.85297 36036 ft 422 kts 187°
2026-04-20 15:04 -45.78502 -70.85913 36038 ft 421 kts 187°
2026-04-20 15:04 -45.84351 -70.86530 36033 ft 422 kts 187°
2026-04-20 15:05 -45.90193 -70.87148 36023 ft 422 kts 187°
2026-04-20 15:05 -45.96083 -70.87772 36016 ft 422 kts 187°
2026-04-20 15:06 -46.01946 -70.88395 36015 ft 423 kts 187°
2026-04-20 15:06 -46.07811 -70.89021 36007 ft 422 kts 187°
2026-04-20 15:07 -46.13674 -70.89648 36007 ft 422 kts 187°
2026-04-20 15:07 -46.19519 -70.90273 35993 ft 422 kts 188°
2026-04-20 15:08 -46.25344 -70.90897 35983 ft 422 kts 187°
2026-04-20 15:08 -46.31189 -70.91524 35978 ft 422 kts 188°
2026-04-20 15:09 -46.37014 -70.92149 35993 ft 420 kts 188°
2026-04-20 15:09 -46.42873 -70.92781 35992 ft 419 kts 188°
2026-04-20 15:10 -46.48665 -70.93409 35993 ft 418 kts 188°
2026-04-20 15:10 -46.54466 -70.94038 35992 ft 418 kts 188°
2026-04-20 15:11 -46.60277 -70.94669 35982 ft 417 kts 188°
2026-04-20 15:11 -46.66063 -70.95300 35977 ft 417 kts 189°
2026-04-20 15:12 -46.71856 -70.95935 35681 ft 418 kts 188°
2026-04-20 15:12 -46.74762 -70.96252 35910 ft 415 kts 188°
2026-04-20 15:12 -46.77649 -70.96568 35957 ft 419 kts 188°
2026-04-20 15:13 -46.83423 -70.97199 35956 ft 416 kts 189°
2026-04-20 15:13 -46.89201 -70.97831 35937 ft 414 kts 189°
2026-04-20 15:14 -46.94930 -70.98462 35935 ft 416 kts 189°
2026-04-20 15:14 -47.00689 -70.99097 35945 ft 414 kts 189°
2026-04-20 15:15 -47.06428 -70.99731 35954 ft 413 kts 189°
2026-04-20 15:15 -47.12141 -71.00363 35965 ft 414 kts 190°
2026-04-20 15:16 -47.17851 -71.00995 35959 ft 412 kts 189°
2026-04-20 15:16 -47.23573 -71.01631 35964 ft 414 kts 190°
2026-04-20 15:17 -47.29272 -71.02266 35948 ft 411 kts 190°
2026-04-20 15:17 -47.34961 -71.02899 35965 ft 412 kts 190°
2026-04-20 15:18 -47.40651 -71.03539 35953 ft 411 kts 190°
2026-04-20 15:18 -47.46334 -71.04177 35946 ft 409 kts 190°
2026-04-20 15:19 -47.51989 -71.04815 35960 ft 409 kts 190°
2026-04-20 15:19 -47.57649 -71.05451 35957 ft 409 kts 191°
2026-04-20 15:20 -47.63339 -71.06094 35951 ft 408 kts 191°
2026-04-20 15:20 -47.68993 -71.06671 35942 ft 410 kts 191°
2026-04-20 15:21 -47.74652 -71.07310 35940 ft 411 kts 191°
2026-04-20 15:21 -47.80331 -71.07860 35931 ft 408 kts 191°
2026-04-20 15:22 -47.85994 -71.08504 35915 ft 408 kts 191°
2026-04-20 15:22 -47.91658 -71.09206 35906 ft 407 kts 192°
2026-04-20 15:23 -47.97308 -71.09892 35922 ft 407 kts 192°
2026-04-20 15:23 -48.02947 -71.10516 35917 ft 408 kts 192°
2026-04-20 15:24 -48.08606 -71.11231 35902 ft 408 kts 192°
2026-04-20 15:24 -48.14273 -71.11995 35904 ft 412 kts 193°
2026-04-20 15:25 -48.20015 -71.12727 35903 ft 412 kts 192°
2026-04-20 15:25 -48.25779 -71.13300 35889 ft 412 kts 191°
2026-04-20 15:26 -48.31459 -71.13913 35893 ft 412 kts 191°
2026-04-20 15:26 -48.37183 -71.14578 35885 ft 412 kts 191°
2026-04-20 15:27 -48.42880 -71.15245 35872 ft 412 kts 192°
2026-04-20 15:27 -48.48603 -71.15923 35862 ft 416 kts 191°
2026-04-20 15:28 -48.54345 -71.16580 35877 ft 415 kts 191°
2026-04-20 15:28 -48.60114 -71.17283 35872 ft 415 kts 192°
2026-04-20 15:29 -48.65831 -71.17956 35769 ft 409 kts 191°
2026-04-20 15:29 -48.68658 -71.18260 35452 ft 404 kts 192°
2026-04-20 15:29 -48.71440 -71.18552 34916 ft 406 kts 192°
2026-04-20 15:29 -48.74232 -71.18903 34285 ft 407 kts 192°
2026-04-20 15:30 -48.77061 -71.19254 33579 ft 410 kts 192°
2026-04-20 15:30 -48.79882 -71.19640 32960 ft 411 kts 191°
2026-04-20 15:30 -48.82757 -71.19997 32400 ft 413 kts 191°
2026-04-20 15:30 -48.85580 -71.20394 31830 ft 412 kts 192°
2026-04-20 15:31 -48.88445 -71.20782 31252 ft 411 kts 191°
2026-04-20 15:31 -48.91260 -71.21120 30679 ft 410 kts 190°
2026-04-20 15:31 -48.94111 -71.21420 30079 ft 408 kts 190°
2026-04-20 15:31 -48.96914 -71.21707 29495 ft 406 kts 190°
2026-04-20 15:32 -48.99707 -71.21999 28923 ft 404 kts 190°
2026-04-20 15:32 -49.02513 -71.22304 28344 ft 401 kts 190°
2026-04-20 15:32 -49.05265 -71.22612 27787 ft 398 kts 190°
2026-04-20 15:32 -49.07993 -71.22926 27230 ft 396 kts 190°
2026-04-20 15:33 -49.10754 -71.23251 26660 ft 393 kts 190°
2026-04-20 15:33 -49.13449 -71.23571 26098 ft 391 kts 190°
2026-04-20 15:33 -49.16156 -71.23896 25546 ft 388 kts 189°
2026-04-20 15:33 -49.18814 -71.24216 25001 ft 386 kts 190°
2026-04-20 15:34 -49.21486 -71.24539 24450 ft 384 kts 190°
2026-04-20 15:34 -49.24108 -71.24857 23910 ft 381 kts 189°
2026-04-20 15:34 -49.26754 -71.25176 23362 ft 379 kts 190°
2026-04-20 15:34 -49.29386 -71.25494 22819 ft 377 kts 189°
2026-04-20 15:35 -49.31958 -71.25805 22282 ft 375 kts 189°
2026-04-20 15:35 -49.34562 -71.26121 21737 ft 372 kts 189°
2026-04-20 15:35 -49.37098 -71.26427 21222 ft 370 kts 189°
2026-04-20 15:35 -49.39657 -71.26736 20689 ft 367 kts 189°
2026-04-20 15:36 -49.42194 -71.27042 20153 ft 365 kts 189°
2026-04-20 15:36 -49.44720 -71.27348 19623 ft 362 kts 189°
2026-04-20 15:36 -49.47211 -71.27651 19105 ft 359 kts 189°
2026-04-20 15:36 -49.49661 -71.27947 18594 ft 356 kts 189°
2026-04-20 15:37 -49.52140 -71.28249 18071 ft 352 kts 189°
2026-04-20 15:37 -49.54538 -71.28540 17571 ft 349 kts 189°
2026-04-20 15:37 -49.56937 -71.28832 17062 ft 346 kts 189°
2026-04-20 15:37 -49.59312 -71.29183 16559 ft 340 kts 192°
2026-04-20 15:38 -49.61605 -71.29884 16053 ft 333 kts 200°
2026-04-20 15:38 -49.63757 -71.31088 15588 ft 325 kts 207°
2026-04-20 15:38 -49.65763 -71.32539 15130 ft 319 kts 211°
2026-04-20 15:38 -49.67723 -71.34090 14668 ft 314 kts 212°
2026-04-20 15:39 -49.69644 -71.35638 14218 ft 310 kts 212°
2026-04-20 15:39 -49.71539 -71.37150 13765 ft 306 kts 211°
2026-04-20 15:39 -49.73419 -71.38626 13321 ft 302 kts 211°
2026-04-20 15:39 -49.75290 -71.40083 12882 ft 298 kts 211°
2026-04-20 15:40 -49.77110 -71.41492 12461 ft 295 kts 211°
2026-04-20 15:40 -49.78934 -71.42904 12020 ft 292 kts 211°
2026-04-20 15:40 -49.80750 -71.44312 11595 ft 288 kts 211°
2026-04-20 15:40 -49.82519 -71.45683 11191 ft 285 kts 212°
2026-04-20 15:41 -49.84267 -71.47041 10774 ft 282 kts 212°
2026-04-20 15:41 -49.86008 -71.48397 10363 ft 281 kts 212°
2026-04-20 15:41 -49.87766 -71.49768 10096 ft 279 kts 213°
2026-04-20 15:41 -49.89453 -71.51077 9958 ft 267 kts 213°
2026-04-20 15:42 -49.91093 -71.52346 9816 ft 257 kts 213°
2026-04-20 15:42 -49.92660 -71.53569 9473 ft 255 kts 213°
2026-04-20 15:42 -49.94241 -71.54812 9131 ft 253 kts 213°
2026-04-20 15:42 -49.95806 -71.56041 8810 ft 250 kts 213°
2026-04-20 15:43 -49.97337 -71.57240 8501 ft 248 kts 213°
2026-04-20 15:43 -49.98905 -71.58472 8178 ft 255 kts 213°
2026-04-20 15:43 -50.00473 -71.59704 7843 ft 255 kts 213°
2026-04-20 15:43 -50.02054 -71.60938 7525 ft 252 kts 213°
2026-04-20 15:44 -50.03595 -71.62142 7252 ft 248 kts 213°
2026-04-20 15:44 -50.05151 -71.63363 7074 ft 252 kts 213°
2026-04-20 15:44 -50.06724 -71.64606 6756 ft 259 kts 213°
2026-04-20 15:44 -50.08328 -71.65868 6422 ft 258 kts 213°
2026-04-20 15:45 -50.09926 -71.67118 6209 ft 252 kts 213°
2026-04-20 15:45 -50.11500 -71.68353 5735 ft 253 kts 212°
2026-04-20 15:45 -50.13061 -71.69611 5222 ft 255 kts 213°
2026-04-20 15:45 -50.14626 -71.70875 4839 ft 253 kts 211°
2026-04-20 15:46 -50.16192 -71.72082 4775 ft 253 kts 208°
2026-04-20 15:46 -50.17891 -71.73038 4677 ft 262 kts 200°
2026-04-20 15:46 -50.19665 -71.73692 4406 ft 260 kts 198°
2026-04-20 15:46 -50.21395 -71.74346 4181 ft 251 kts 198°
2026-04-20 15:47 -50.23033 -71.75018 3950 ft 240 kts 198°
2026-04-20 15:47 -50.24594 -71.75790 3733 ft 228 kts 209°
2026-04-20 15:47 -50.25861 -71.77099 3553 ft 211 kts 232°
2026-04-20 15:47 -50.26437 -71.79040 3379 ft 191 kts 264°
2026-04-20 15:48 -50.26524 -71.81029 3231 ft 181 kts 271°
2026-04-20 15:48 -50.26627 -71.82987 3089 ft 177 kts 266°
2026-04-20 15:48 -50.26771 -71.84859 2941 ft 169 kts 267°
2026-04-20 15:48 -50.26890 -71.86627 2812 ft 161 kts 266°
2026-04-20 15:49 -50.26988 -71.88367 2598 ft 157 kts 268°
2026-04-20 15:49 -50.27082 -71.90006 2393 ft 153 kts 267°
2026-04-20 15:49 -50.27200 -71.91679 2204 ft 148 kts 265°
2026-04-20 15:49 -50.27299 -71.93218 1991 ft 144 kts 267°
2026-04-20 15:50 -50.27384 -71.94708 1789 ft 131 kts 265°
2026-04-20 15:50 -50.27492 -71.96102 1559 ft 130 kts 266°
2026-04-20 15:50 -50.27561 -71.97493 1389 ft 129 kts 267°
2026-04-20 15:50 -50.27629 -71.98905 1220 ft 129 kts 265°
2026-04-20 15:51 -50.27721 -72.00291 1061 ft 129 kts 265°
2026-04-20 15:51 -50.27799 -72.01676 902 ft 129 kts 265°
2026-04-20 15:51 -50.27888 -72.03077 721 ft 128 kts 265°
2026-04-20 15:51 -50.27968 -72.04404 651 ft 106 kts 264°
2026-04-20 15:52 -50.28016 -72.05200 655 ft 46 kts 265°
2026-04-20 15:52 -50.28044 -72.05636 657 ft 40 kts 264°
2026-04-20 15:52 -50.28076 -72.06100 659 ft 36 kts 255°
2026-04-20 15:53 -50.28290 -72.06388 661 ft 16 kts 147°
2026-04-20 15:53 -50.28310 -72.06223 661 ft 17 kts 84°
2026-04-20 15:53 -50.28297 -72.06004 661 ft 23 kts 84°
2026-04-20 15:53 -50.28291 -72.05898 660 ft 25 kts 84°
2026-04-20 15:54 -50.28275 -72.05615 659 ft 23 kts 85°
2026-04-20 15:54 -50.28312 -72.05514 659 ft 10 kts 144°
2026-04-20 15:54 -50.28347 -72.05473 658 ft 0 kts 144°